QPF
0.00 0.00 0.01 0.09 0.12 0.14 0.14 0.02 0.00 0.00 0.00 0.00 0.00 0.00 0.00 0.00 0.00 0.00 0.00 0.00 0.00 0.00 0.00 0.00 0.00 0.00 0.00 0.00 0.00 0.00 0.00 0.00
0.00 0.00 0.00 0.01 0.06 0.13 0.15 0.09 0.01 0.00 0.01 0.00 0.00 0.00 0.00 0.00 0.00 0.00 0.00 0.00 0.00 0.00 0.00 0.00 0.00 0.00 0.00 0.00 0.00 0.00 0.00 0.00
0.00 0.00 0.00 0.00 0.03 0.06 0.08 0.03 0.00 0.00 0.00 0.00 0.00 0.00 0.00 0.00 0.00 0.00 0.00 0.00 0.00 0.00 0.00 0.00 0.00 0.00 0.00 0.00 0.00 0.00 0.00 0.00
0.00 0.00 0.00 0.00 0.00 0.01 0.05 0.05 0.01 0.01 0.00 0.00 0.00 0.00 0.00 0.00 0.00 0.00 0.00 0.00 0.00 0.00 0.00 0.00 0.00 0.00 0.00 0.00 0.00 0.00 0.00 0.00
0.00 0.00 0.00 0.00 0.00 0.00 0.02 0.03 0.03 0.00 0.00 0.00 0.00 0.00 0.00 0.00 0.01 0.02 0.03 0.03 0.02 0.02 0.02 0.01 0.00 0.00 0.01 0.03 0.03 0.03 0.04 0.04
0.00 0.00 0.00 0.00 0.00 0.00 0.00 0.00 0.00 0.00 0.00 0.00 0.02 0.03 0.03 0.02 0.02 0.03 0.01 0.02 0.02 0.02 0.01 0.02 0.01 0.05 0.07 0.04 0.08 0.11 0.13 0.12
0.00 0.00 0.00 0.00 0.00 0.00 0.00 0.00 0.00 0.00 0.00 0.06 0.06 0.02 0.02 0.03 0.05 0.06 0.05 0.04 0.05 0.05 0.01 0.00 0.02 0.06 0.18 0.08 0.03 0.05 0.08 0.11
0.00 0.00 0.00 0.00 0.00 0.00 0.00 0.00 0.00 0.00 0.00 0.04 0.01 0.01 0.03 0.06 0.11 0.08 0.03 0.01 0.03 0.02 0.01 0.01 0.00 0.01 0.01 0.00 0.00 0.00 0.01 0.01
0.00 0.00 0.00 0.00 0.00 0.00 0.00 0.00 0.00 0.00 0.00 0.00 0.00 0.03 0.03 0.05 0.03 0.02 0.01 0.01 0.00 0.00 0.00 0.00 0.00 0.00 0.00 0.00 0.00 0.01 0.02 0.01
0.00 0.00 0.00 0.01 0.02 0.03 0.02 0.02 0.01 0.01 0.01 0.03 0.01 0.04 0.05 0.03 0.02 0.01 0.01 0.00 0.00 0.00 0.01 0.00 0.00 0.00 0.01 0.00 0.01 0.00 0.00 0.00
0.00 0.00 0.00 0.00 0.01 0.02 0.04 0.00 0.00 0.02 0.02 0.04 0.02 0.02 0.02 0.01 0.02 0.01 0.02 0.01 0.02 0.01 0.02 0.03 0.02 0.04 0.07 0.03 0.01 0.00 0.00 0.00
0.00 0.00 0.00 0.00 0.00 0.02 0.05 0.03 0.05 0.02 0.03 0.04 0.02 0.01 0.01 0.01 0.01 0.00 0.00 0.00 0.00 0.00 0.00 0.00 0.01 0.03 0.04 0.00 0.00 0.00 0.00 0.00
0.00 0.00 0.00 0.01 0.04 0.06 0.05 0.08 0.06 0.05 0.06 0.02 0.01 0.01 0.00 0.00 0.00 0.00 0.00 0.00 0.00 0.00 0.00 0.00 0.00 0.00 0.00 0.00 0.00 0.00 0.00 0.00
0.00 0.00 0.00 0.01 0.03 0.04 0.04 0.03 0.03 0.01 0.01 0.01 0.01 0.00 0.00 0.00 0.00 0.00 0.00 0.00 0.00 0.00 0.00 0.00 0.00 0.00 0.00 0.00 0.00 0.00 0.00 0.00
0.00 0.00 0.00 0.01 0.01 0.01 0.01 0.01 0.00 0.00 0.00 0.00 0.00 0.00 0.00 0.00 0.00 0.00 0.00 0.00 0.00 0.00 0.00 0.00 0.00 0.00 0.00 0.00 0.00 0.00 0.00 0.00
0.00 0.00 0.00 0.00 0.00 0.00 0.00 0.00 0.00 0.00 0.00 0.00 0.00 0.00 0.00 0.00 0.00 0.00 0.00 0.00 0.00 0.00 0.00 0.00 0.00 0.00 0.00 0.00 0.00 0.00 0.00 0.00
0.00 0.00 0.00 0.00 0.00 0.00 0.00 0.00 0.00 0.00 0.00 0.00 0.00 0.00 0.00 0.00 0.00 0.00 0.00 0.00 0.00 0.00 0.00 0.00 0.00 0.00 0.00 0.00 0.00 0.00 0.00 0.00
0.00 0.01 0.00 0.00 0.00 0.00 0.00 0.00 0.00 0.00 0.00 0.00 0.00 0.00 0.00 0.00 0.00 0.00 0.00 0.00 0.00 0.00 0.00 0.00 0.00 0.00 0.00 0.00 0.00 0.00 0.00 0.00
0.00 0.00 0.00 0.00 0.00 0.00 0.00 0.00 0.00 0.00 0.00 0.00 0.00 0.00 0.00 0.00 0.00 0.00 0.00 0.00 0.00 0.00 0.00 0.00 0.00 0.00 0.00 0.00 0.00 0.00 0.00 0.00
0.00 0.00 0.00 0.00 0.00 0.00 0.00 0.00 0.00 0.00 0.00 0.00 0.00 0.00 0.00 0.00 0.00 0.00 0.00 0.00 0.00 0.00 0.00 0.00 0.00 0.00 0.00 0.00 0.00 0.00 0.00 0.00
MSLP
1004.26 1005.57 1006.21 1007.21 1008.20 1008.83 1009.62 1010.20 1010.26 1009.82 1009.96 1010.46 1011.04 1011.32 1011.66 1012.11 1012.50 1012.56 1012.80 1013.01 1013.30 1013.69 1014.02 1014.06 1014.12 1014.27 1014.57 1014.63 1014.82 1015.02 1015.43 1015.56
1004.37 1005.50 1006.54 1007.38 1008.18 1008.81 1009.03 1010.22 1009.99 1010.09 1010.40 1010.33 1010.07 1010.64 1010.79 1011.03 1011.58 1012.23 1012.51 1012.81 1013.09 1013.38 1013.53 1013.75 1014.00 1013.92 1014.26 1014.58 1014.84 1015.07 1015.33 1015.34
1005.22 1006.19 1006.97 1007.48 1007.64 1008.39 1009.17 1009.92 1009.89 1008.50 1010.34 1010.39 1010.38 1010.23 1010.36 1010.46 1010.97 1011.72 1012.05 1012.35 1013.01 1013.09 1013.30 1013.27 1013.32 1013.58 1013.86 1014.30 1014.75 1014.90 1014.89 1015.21
1005.79 1006.66 1007.43 1007.64 1007.74 1007.65 1008.59 1009.09 1009.00 1009.01 1009.66 1010.31 1010.39 1010.36 1010.70 1011.09 1010.66 1011.36 1011.78 1012.00 1012.59 1013.03 1013.07 1012.96 1013.00 1013.10 1013.43 1013.92 1014.52 1015.03 1015.14 1015.19
1004.95 1006.12 1006.86 1007.14 1007.80 1007.71 1008.03 1007.87 1007.71 1007.92 1008.06 1008.93 1009.24 1010.15 1010.16 1010.38 1010.49 1011.00 1011.34 1011.90 1012.42 1012.45 1012.95 1012.91 1012.95 1012.93 1013.19 1013.67 1014.21 1014.53 1015.06 1014.85
1004.11 1005.46 1006.34 1007.18 1007.67 1007.94 1007.48 1007.33 1007.69 1008.55 1008.99 1009.49 1009.78 1009.48 1009.87 1010.26 1010.47 1010.61 1010.78 1011.49 1012.00 1012.22 1012.41 1012.42 1012.59 1013.22 1013.57 1013.99 1014.19 1014.23 1015.16 1014.74
1003.94 1004.83 1005.73 1006.63 1007.00 1007.83 1007.59 1007.57 1007.94 1008.57 1009.27 1009.67 1009.80 1010.00 1010.23 1010.43 1010.40 1010.37 1010.51 1011.10 1011.44 1011.68 1012.01 1012.26 1012.99 1013.47 1013.77 1013.97 1014.29 1014.18 1014.98 1014.86
1003.47 1004.62 1005.39 1006.18 1006.87 1007.83 1007.66 1007.83 1008.40 1008.79 1009.35 1009.98 1009.96 1010.03 1010.01 1010.21 1011.06 1011.21 1011.04 1011.16 1011.44 1011.66 1011.90 1012.95 1012.89 1013.34 1013.86 1014.18 1014.09 1014.36 1014.55 1014.46
1003.10 1004.15 1005.07 1006.23 1007.49 1008.00 1007.79 1007.90 1008.23 1008.83 1009.32 1009.83 1010.15 1010.14 1010.00 1010.39 1010.93 1010.80 1011.17 1011.40 1011.64 1011.91 1012.38 1012.86 1013.05 1013.56 1013.95 1013.94 1014.29 1014.48 1014.55 1014.21
1003.44 1004.39 1005.36 1006.13 1006.80 1007.58 1007.82 1007.89 1008.22 1008.74 1009.16 1009.59 1009.61 1009.83 1010.23 1010.33 1010.74 1010.83 1011.06 1011.22 1011.47 1011.94 1012.53 1012.81 1013.17 1013.74 1014.01 1014.15 1014.07 1014.31 1014.23 1014.08
1004.14 1004.79 1005.44 1006.02 1006.65 1007.34 1007.82 1008.01 1008.06 1008.44 1008.56 1008.99 1009.64 1009.94 1010.60 1011.24 1011.70 1011.77 1011.54 1011.49 1011.67 1011.95 1012.29 1012.64 1013.01 1013.44 1013.89 1014.05 1014.17 1014.34 1014.53 1014.03
1004.78 1005.57 1006.18 1006.66 1007.02 1007.53 1008.07 1008.32 1008.70 1008.73 1009.09 1009.49 1010.13 1010.82 1011.63 1012.29 1012.58 1012.42 1012.47 1012.12 1012.02 1012.14 1012.24 1012.37 1013.06 1013.70 1014.03 1014.05 1014.05 1014.28 1014.48 1014.38
1005.39 1006.11 1006.74 1007.22 1007.93 1008.12 1008.67 1008.97 1009.31 1009.52 1009.99 1010.13 1010.67 1011.62 1012.08 1012.71 1013.14 1013.04 1013.13 1013.04 1012.90 1013.02 1013.17 1013.29 1013.79 1014.03 1014.23 1014.42 1014.55 1014.60 1014.43 1014.36
1006.22 1007.01 1007.47 1007.98 1008.58 1008.91 1009.25 1009.21 1010.42 1010.29 1010.44 1011.10 1011.46 1012.10 1012.92 1013.37 1013.80 1014.07 1014.21 1014.07 1013.96 1014.01 1013.92 1014.09 1014.29 1014.32 1014.54 1014.55 1014.51 1014.34 1014.13 1013.90
1006.45 1007.30 1008.20 1008.73 1009.06 1009.47 1009.66 1009.86 1010.74 1010.86 1011.16 1011.62 1011.97 1012.50 1013.12 1013.58 1014.16 1014.50 1014.69 1014.88 1015.03 1014.92 1014.69 1014.70 1014.72 1014.71 1014.58 1014.48 1014.46 1014.21 1014.07 1013.90
1007.19 1007.77 1008.41 1009.21 1009.83 1010.31 1010.78 1011.08 1011.23 1011.73 1011.91 1012.38 1012.71 1013.08 1013.54 1014.00 1014.24 1014.50 1014.79 1014.89 1014.90 1014.92 1014.80 1014.66 1014.66 1014.50 1014.57 1014.57 1014.53 1014.51 1014.32 1014.09
1007.44 1008.28 1009.13 1009.79 1010.40 1010.95 1011.12 1011.73 1011.97 1012.39 1012.56 1012.83 1013.30 1013.64 1014.01 1014.37 1014.50 1014.53 1014.54 1014.48 1014.54 1014.65 1014.65 1014.73 1014.83 1014.87 1014.86 1014.84 1014.77 1014.57 1014.31 1014.06
1007.44 1008.41 1009.00 1010.05 1010.44 1011.02 1011.59 1012.06 1012.42 1012.59 1012.82 1013.15 1013.59 1013.92 1014.13 1014.24 1014.33 1014.51 1014.46 1014.49 1014.56 1014.68 1014.79 1014.88 1014.86 1014.77 1014.69 1014.67 1014.57 1014.28 1014.13 1013.80
1007.54 1008.08 1009.07 1010.36 1011.14 1011.60 1012.19 1012.67 1013.02 1013.09 1013.21 1013.49 1013.78 1014.10 1014.25 1014.29 1014.34 1014.37 1014.35 1014.39 1014.44 1014.50 1014.54 1014.56 1014.57 1014.41 1014.30 1014.36 1014.23 1013.95 1013.82 1013.46
1007.66 1007.27 1009.51 1011.28 1012.18 1012.44 1012.81 1013.11 1013.49 1013.81 1013.80 1013.92 1014.11 1014.16 1014.21 1014.15 1014.20 1014.30 1014.34 1014.29 1014.32 1014.42 1014.52 1014.57 1014.47 1014.23 1014.13 1014.05 1013.91 1013.59 1013.30 1012.85
Thickness
5798 5791 5803 5791 5796 5797 5790 5781 5782 5790 5789 5788 5786 5785 5784 5780 5777 5779 5778 5776 5773 5769 5767 5766 5766 5765 5763 5763 5763 5761 5755 5752
5797 5791 5787 5783 5781 5785 5784 5768 5780 5768 5775 5779 5785 5784 5782 5784 5780 5775 5774 5772 5770 5766 5765 5761 5759 5760 5758 5756 5754 5751 5747 5745
5779 5785 5779 5777 5777 5776 5772 5766 5771 5784 5766 5769 5770 5772 5775 5777 5775 5770 5770 5769 5762 5761 5759 5759 5759 5756 5753 5749 5745 5743 5743 5738
5764 5768 5766 5769 5772 5773 5767 5768 5772 5773 5765 5760 5764 5766 5764 5759 5770 5768 5765 5763 5758 5755 5755 5755 5754 5754 5750 5744 5738 5734 5733 5729
5770 5764 5764 5765 5763 5763 5762 5769 5775 5778 5774 5767 5768 5760 5760 5761 5764 5763 5760 5756 5751 5750 5746 5747 5744 5744 5740 5735 5730 5726 5721 5721
5772 5763 5762 5760 5756 5753 5761 5765 5764 5760 5763 5761 5759 5762 5759 5759 5758 5759 5757 5751 5746 5744 5743 5742 5740 5733 5729 5724 5722 5721 5712 5711
5763 5764 5761 5758 5756 5747 5752 5755 5754 5750 5750 5753 5753 5756 5755 5753 5753 5755 5753 5745 5740 5737 5735 5732 5725 5721 5719 5715 5713 5714 5705 5702
5760 5759 5755 5753 5749 5741 5742 5743 5741 5742 5740 5741 5744 5747 5750 5750 5742 5739 5740 5736 5731 5730 5729 5719 5718 5714 5710 5705 5704 5699 5697 5696
5754 5755 5750 5743 5736 5733 5735 5737 5739 5737 5735 5733 5733 5735 5741 5738 5734 5731 5729 5725 5720 5717 5716 5711 5708 5703 5698 5696 5692 5688 5684 5685
5744 5744 5741 5737 5734 5730 5730 5735 5734 5730 5729 5727 5730 5728 5727 5730 5728 5723 5718 5715 5712 5709 5704 5700 5698 5693 5690 5687 5684 5680 5681 5679
5730 5733 5732 5731 5728 5727 5725 5727 5728 5724 5725 5725 5722 5722 5716 5709 5706 5705 5706 5706 5704 5701 5698 5696 5693 5688 5681 5679 5677 5675 5672 5674
5718 5718 5719 5719 5719 5720 5717 5717 5716 5716 5714 5714 5711 5705 5698 5692 5690 5692 5692 5696 5696 5694 5692 5691 5686 5679 5674 5673 5671 5667 5663 5661
5706 5705 5705 5708 5707 5709 5706 5705 5704 5705 5701 5701 5698 5691 5686 5681 5678 5681 5680 5681 5681 5679 5677 5674 5670 5667 5664 5659 5656 5654 5653 5652
5695 5693 5695 5695 5695 5694 5692 5694 5685 5689 5688 5684 5682 5676 5670 5667 5664 5661 5660 5660 5661 5661 5661 5660 5657 5655 5650 5647 5645 5645 5645 5646
5689 5686 5683 5682 5682 5683 5684 5684 5677 5678 5677 5674 5672 5669 5664 5660 5656 5652 5650 5646 5643 5643 5645 5643 5641 5640 5641 5640 5639 5639 5638 5638
5677 5677 5676 5674 5671 5671 5670 5669 5669 5666 5665 5663 5660 5658 5654 5650 5648 5646 5643 5640 5638 5637 5637 5636 5634 5633 5630 5628 5627 5624 5623 5622
5667 5665 5665 5662 5661 5659 5660 5657 5657 5655 5655 5653 5649 5646 5643 5641 5639 5638 5636 5636 5636 5633 5631 5628 5625 5621 5619 5616 5614 5612 5611 5610
5664 5659 5658 5654 5654 5651 5650 5649 5648 5648 5647 5644 5641 5638 5635 5633 5631 5629 5628 5628 5626 5623 5619 5616 5615 5613 5611 5608 5606 5605 5604 5604
5658 5657 5652 5643 5641 5642 5641 5639 5636 5636 5635 5633 5630 5627 5625 5623 5621 5619 5619 5618 5617 5614 5612 5609 5607 5606 5604 5600 5597 5597 5596 5596
5654 5658 5642 5631 5627 5629 5628 5627 5623 5620 5620 5619 5617 5615 5614 5614 5612 5611 5609 5609 5608 5605 5602 5599 5597 5596 5593 5591 5589 5589 5589 5591